M I D A S
Marine Information and Data Acquisition System
Tripno 1592 of the Zeeleeuw from 2008-10-21 08:12:37 to 2008-10-21 09:31:44
Back to CruiseResearch ActivitiesStationsMapUnderway DataData graphs

EquipmentUnitsComment
TimeDGPSUTC
LatitudeDGPSDM.mWGS84
LongitudeDGPSDM.mWGS84
HeadingGyrodeg 
SOGDGPSknotsSpeed over ground
COGDGPSdegCourse over ground
DepthEcho soundermeters200 kHz
Missing or incorrect values are displayed as -999
Navigation data collected by the RV Zeeleeuw from 2008-10-21 08:12:37 to 2008-10-21 09:31:44
Time Latitude Longitude Heading SOG COG Depth
2008-10-21 08:14:40 51°13.623 2°56.048 117.5   208 -999
2008-10-21 08:16:40 51°13.657 2°55.931 111.5 3.6 295 -999
2008-10-21 08:18:40 51°13.698 2°55.753 99.7 3.2 287 -999
2008-10-21 08:20:40 51°13.716 2°55.721 43.5 0.59 354 -999
2008-10-21 08:22:40 51°13.898 2°55.583 334 7.4 335 -999
2008-10-21 08:24:40 51°14.146 2°55.391 333.3 8.3 335 -999
2008-10-21 08:26:40 51°14.35 2°55.099 313.8 8.4 313 -999
2008-10-21 08:28:40 51°14.406 2°54.719 275.5 7.5 272 -999
2008-10-21 08:30:40 51°14.311 2°54.339 246.3 7.7 248 -999
2008-10-21 08:32:40 51°14.21 2°53.964 246.6 7.59 248 -999
2008-10-21 08:34:40 51°14.085 2°53.613 239.4 7.7 240 -999
2008-10-21 08:36:40 51°13.961 2°53.258 241.1 7.7 242 -999
2008-10-21 08:38:40 51°13.834 2°52.904 239.4 7.59 241 -999
2008-10-21 08:40:40 51°13.71 2°52.556 240.5 7.5 239 -999
2008-10-21 08:42:40 51°13.595 2°52.191 242 7.7 243 -999
2008-10-21 08:44:40 51°13.471 2°51.892 243.9 7.4 244 -999
2008-10-21 08:46:40 51°13.5 2°52.138 53 6 55 -999
2008-10-21 08:48:40 51°13.651 2°52.499 56.2 8.09 56 -999
2008-10-21 08:50:40 51°13.805 2°52.84 54.7 8 50 -999
2008-10-21 08:52:40 51°13.962 2°53.18 53.2 7.9 53 -999
2008-10-21 08:54:40 51°14.117 2°53.52 53.5 8 56 -999
2008-10-21 08:56:40 51°14.283 2°53.84 52.5 7.79 51 -999
2008-10-21 08:58:40 51°14.493 2°54.091 37 7.9 38 -999
2008-10-21 09:00:40 51°14.708 2°54.345 37.3 8.09 39 -999
2008-10-21 09:02:40 51°14.941 2°54.543 24.6 8 20 -999
2008-10-21 09:04:40 51°15.187 2°54.723 26.1 8.09 25 -999
2008-10-21 09:06:40 51°15.432 2°54.914 25.5 8.19 24 -999
2008-10-21 09:08:40 51°15.675 2°55.108 26.8 8.19 26 -999
2008-10-21 09:10:40 51°15.912 2°55.296 27.6 7.9 26 -999
2008-10-21 09:12:40 51°16.146 2°55.478 27 7.79 27 -999
2008-10-21 09:14:40 51°16.362 2°55.686 32 7.7 38 -999
2008-10-21 09:16:40 51°16.362 2°55.539 256.3 5.2 240 -999
2008-10-21 09:18:40 51°16.106 2°55.251 216.1 9.9 219 -999
2008-10-21 09:20:40 51°15.915 2°54.973 224.5 7.59 221 -999
2008-10-21 09:22:40 51°15.709 2°54.734 216.4 7.59 214 -999
2008-10-21 09:24:40 51°15.473 2°54.567 202 7.9 200 -999
2008-10-21 09:26:40 51°15.269 2°54.673 121.7 6.7 132 -999
2008-10-21 09:28:40 51°14.896 2°54.697 175 11.8 177 -999
2008-10-21 09:30:40 51°14.523 2°54.881 154.1 11.9 162 -999